Flag for USA

Past Weather in Fredericksburg, Virginia, USA — Yesterday and Last 2 Weeks

Now
73 °F

Clear.


Feels Like: 70 °F
Forecast: 90 / 69 °F
Wind: No wind

Location: Shannon Airport

Current Time: Jul 14, 2020 at 4:00:23 am

Latest Report: Jul 14, 2020 at 3:15 am


Visibility: 10 mi

Pressure: 29.91 "Hg

Humidity: 92%

Dew Point: 70 °F

Location of FredericksburgLocation

Past Weather in Fredericksburg — Graph

°F

Fredericksburg Temperature Yesterday

Maximum temperature yesterday: 92 °F (at 4:35 pm)
Minimum temperature yesterday: 66 °F (at 5:55 am)
Average temperature yesterday: 79 °F

High & Low Weather Summary for the Past Weeks

 TemperatureHumidityPressure
High97 °F (Jul 3, 3:35 pm)100% (Jul 2, 2:15 am)30.07 "Hg (Jul 2, 2:15 am)
Low66 °F (Jul 12, 5:15 am)34% (Jul 3, 4:15 pm)29.69 "Hg (Jul 11, 3:55 pm)
Average81 °F72%29.89 "Hg
* Reported Jun 29 2:15 am — Jul 14 2:55 am, Fredericksburg. Weather by CustomWeather, © 2020

Note: Actual official high and low records may vary slightly from our data, if they occured in-between our weather recording intervals... More about our weather records

Fredericksburg Weather History for the Previous 24 Hours

Scroll right to see more
 ConditionsComfort  
Time TempWeatherWind HumidityBarometerVisibility
2:55 am
Tue, Jul 14
73 °FPassing clouds.5 mph93%29.92 "Hg10 mi
2:35 am74 °FPassing clouds.5 mph91%29.92 "Hg10 mi
1:35 am76 °FMostly cloudy.No wind82%29.91 "Hg10 mi
1:15 am76 °FOvercast.5 mph81%29.92 "Hg7 mi
12:55 am77 °FMostly cloudy.No wind77%29.91 "Hg10 mi
12:35 am76 °FOvercast.No wind79%29.91 "Hg10 mi
12:15 am77 °FMostly cloudy.5 mph77%29.91 "Hg10 mi
11:55 pm
Mon, Jul 13
78 °FLight rain. Mostly cloudy.3 mph76%29.91 "Hg10 mi
11:35 pm80 °FLight rain. Mostly cloudy.6 mph65%29.91 "Hg10 mi
11:15 pm79 °FMostly cloudy.5 mph69%29.91 "Hg10 mi
10:55 pm78 °FMostly cloudy.3 mph68%29.90 "Hg10 mi
10:35 pm75 °FPassing clouds.No wind76%29.90 "Hg10 mi
10:15 pm76 °FPassing clouds.No wind74%29.89 "Hg10 mi
9:55 pm76 °FClear.No wind72%29.88 "Hg10 mi
9:35 pm77 °FClear.No wind71%29.88 "Hg10 mi
8:55 pm80 °FClear.No wind65%29.86 "Hg10 mi
8:35 pm83 °FClear.No wind61%29.86 "Hg10 mi
7:55 pm88 °FSunny.3 mph48%29.85 "Hg10 mi
7:35 pm90 °FSunny.3 mph39%29.85 "Hg10 mi
7:15 pm90 °FSunny.3 mph38%29.84 "Hg10 mi
6:55 pm91 °FSunny.No wind36%29.83 "Hg10 mi
6:35 pm91 °FSunny.No wind37%29.83 "Hg10 mi
6:15 pm91 °FSunny.7 mph39%29.83 "Hg10 mi
5:55 pm91 °FSunny.9 mph38%29.83 "Hg10 mi
5:35 pm91 °FScattered clouds.6 mph37%29.83 "Hg10 mi
5:15 pm92 °FScattered clouds.9 mph38%29.83 "Hg10 mi
4:55 pm92 °FScattered clouds.8 mph36%29.83 "Hg10 mi
4:35 pm92 °FScattered clouds.7 mph36%29.83 "Hg10 mi
4:15 pm91 °FScattered clouds.No wind39%29.83 "Hg10 mi
3:55 pm88 °FScattered clouds.3 mph42%29.84 "Hg10 mi
3:35 pm90 °FPartly sunny.7 mph41%29.84 "Hg10 mi
3:15 pm87 °FScattered clouds.No wind44%29.84 "Hg10 mi
2:55 pm88 °FScattered clouds.3 mph43%29.85 "Hg10 mi
2:35 pm88 °FScattered clouds.No wind44%29.85 "Hg10 mi
2:15 pm88 °FScattered clouds.3 mph44%29.86 "Hg10 mi
1:55 pm88 °FScattered clouds.5 mph43%29.86 "Hg10 mi
1:35 pm85 °FScattered clouds.No wind50%29.86 "Hg10 mi
1:15 pm87 °FSunny.6 mph49%29.86 "Hg10 mi
12:55 pm87 °FSunny.6 mph49%29.86 "Hg10 mi
12:35 pm86 °FScattered clouds.3 mph50%29.87 "Hg10 mi
12:15 pm85 °FSunny.7 mph53%29.87 "Hg10 mi
11:55 am84 °FSunny.3 mph57%29.87 "Hg10 mi
11:35 am84 °FSunny.No wind57%29.87 "Hg10 mi
11:15 am83 °FSunny.7 mph60%29.87 "Hg10 mi
10:55 am82 °FSunny.7 mph62%29.86 "Hg10 mi
10:35 am82 °FSunny.3 mph63%29.86 "Hg10 mi
10:15 am81 °FSunny.3 mph67%29.86 "Hg10 mi
9:55 am81 °FSunny.3 mph66%29.85 "Hg10 mi
9:35 am79 °FScattered clouds.6 mph69%29.86 "Hg10 mi
9:15 am78 °FPartly sunny.7 mph71%29.86 "Hg10 mi
8:55 am77 °FScattered clouds.6 mph76%29.86 "Hg10 mi
8:35 am74 °FScattered clouds.No wind83%29.86 "Hg10 mi
8:15 am74 °FScattered clouds.No wind85%29.86 "Hg10 mi
7:55 am73 °FScattered clouds.No wind88%29.86 "Hg10 mi
7:35 am72 °FSunny.No wind91%29.84 "Hg10 mi
7:15 am71 °FSunny.No wind94%29.84 "Hg10 mi
6:55 am69 °FScattered clouds.No wind99%29.84 "Hg10 mi
6:35 am67 °FScattered clouds.No wind100%29.84 "Hg10 mi
6:15 am66 °FSunny.No wind100%29.83 "Hg10 mi
5:55 am66 °FClear.No wind99%29.83 "Hg10 mi
5:35 am68 °FClear.No wind100%29.83 "Hg10 mi
5:15 am67 °FClear.No wind100%29.82 "Hg10 mi
4:55 am67 °FClear.No wind100%29.82 "Hg10 mi
4:35 am68 °FClear.No wind100%29.81 "Hg10 mi
4:15 am67 °FClear.No wind100%29.80 "Hg10 mi
Weather by CustomWeather, © 2020

See weather overview